Location: Laterina
(43.5167°N, 11.7167°E)
Time: 15:59:23
(UTC+00:00)

NOSS 3-2 (C) - Pass Details

Date: 24 September 2020
Orbit: 795 x 1418 km, 63.4° (Epoch: 02 October)

Event Time Altitude Azimuth Distance (km) Brightness Sun altitude
Rises 17:58:12 0° 324° (NW) 3,949 7.4 -10.2°
Reaches altitude 10° 18:00:48 10° 328° (NNW) 3,073 6.7 -10.7°
Maximum altitude 18:08:15 63° 49° (NE) 1,412 4.2 -12.0°
Enters shadow 18:16:07 12° 129° (SE) 3,271 5.7 -13.4°
